Port Huron, MI

12:43 AM EDT on May 26, 2017 (GMT -0400)
Saint Clair County International

Weather History for KPHN - August, 2013

Change the Weather History Date:

Friday, August 9, 2013

  Actual Average (KMTC) Record (KMTC)
Temperature  
Mean Temperature 67 °F -  
Max Temperature 77 °F 80 °F 94 °F (1949)
Min Temperature 57 °F 61 °F 45 °F (1964)
Cooling Degree Days 2    
Growing Degree Days 17 (Base 50)    
Moisture  
Dew Point 59 °F    
Average Humidity 80    
Maximum Humidity 100    
Minimum Humidity 47    
Precipitation  
Precipitation 0.00 in - - ()
Sea Level Pressure  
Sea Level Pressure 29.97 in    
Wind  
Wind Speed 4 mph (WNW)    
Max Wind Speed 7 mph    
Max Gust Speed -    
Visibility 10 miles    
Events      
Averages and records for this station are not official NWS values.
T = Trace of Precipitation, MM = Missing Value Source: NWS Daily Summary

Daily Weather History Graph

Daily Weather History Graph

Search for Another Location

Airport or City:

Trip Planner

Search our weather history database for the weather conditions in past years. The results will help you decide how hot, cold, wet, or windy it might be!

Date:

Astronomy

Aug. 09, 2013 Rise Set
Actual Time 6:29 AM EDT 8:40 PM EDT
Civil Twilight 5:58 AM EDT 9:11 PM EDT
Nautical Twilight 5:20 AM EDT 9:49 PM EDT
Astronomical Twilight 4:37 AM EDT 10:32 PM EDT
Moon 9:20 AM EDT (8/9) 9:42 PM EDT (8/9)
Length of Visible Light 15h 12m
Length of Day
14h 10m
Waxing Crescent, 7% of the Moon is Illuminated
Aug 9
Waxing Crescent
Aug 14
First Quarter
Aug 20
Full
Aug 28
Last Quarter
Sep 5
New

Hourly Weather History & Observations

Time (EDT) Temp. Dew Point Humidity Pressure Visibility Wind Dir Wind Speed Gust Speed Precip Events Conditions
12:16 AM 59.0 °F 59.0 °F 100% 29.99 in 10.0 mi NW 4.6 mph - N/A   Clear
12:36 AM 59.0 °F 59.0 °F 100% 29.99 in 10.0 mi NW 3.5 mph - N/A   Clear
12:56 AM 59.0 °F 59.0 °F 100% 29.99 in 10.0 mi NW 4.6 mph - N/A   Clear
1:16 AM 59.0 °F 59.0 °F 100% 29.98 in 10.0 mi NW 3.5 mph - N/A   Clear
1:36 AM 59.0 °F 59.0 °F 100% 29.98 in 10.0 mi NW 4.6 mph - N/A   Clear
1:56 AM 59.0 °F 59.0 °F 100% 29.97 in 10.0 mi NW 5.8 mph - N/A   Clear
2:16 AM 59.0 °F 59.0 °F 100% 29.97 in 10.0 mi NW 4.6 mph - N/A   Clear
2:36 AM 59.0 °F 59.0 °F 100% 29.97 in 10.0 mi NW 4.6 mph - N/A   Clear
2:56 AM 59.0 °F 59.0 °F 100% 29.97 in 10.0 mi NW 5.8 mph - N/A   Clear
3:16 AM 59.0 °F 59.0 °F 100% 29.97 in 10.0 mi NW 5.8 mph - N/A   Clear
3:36 AM 59.0 °F 59.0 °F 100% 29.97 in 10.0 mi NNW 5.8 mph - N/A   Clear
3:56 AM 59.0 °F 59.0 °F 100% 29.96 in 10.0 mi Calm Calm - N/A   Clear
4:16 AM 57.2 °F 57.2 °F 100% 29.96 in 10.0 mi NW 3.5 mph - N/A   Clear
4:36 AM 57.2 °F 57.2 °F 100% 29.97 in 10.0 mi WNW 5.8 mph - N/A   Clear
4:56 AM 57.2 °F 57.2 °F 100% 29.95 in 10.0 mi NW 3.5 mph - N/A   Clear
5:16 AM 57.2 °F 57.2 °F 100% 29.96 in 10.0 mi NW 3.5 mph - N/A   Clear
5:36 AM 57.2 °F 57.2 °F 100% 29.97 in 10.0 mi NW 4.6 mph - N/A   Clear
5:56 AM 57.2 °F 57.2 °F 100% 29.97 in 10.0 mi NW 4.6 mph - N/A   Clear
6:16 AM 57.2 °F 57.2 °F 100% 29.97 in 10.0 mi NW 5.8 mph - N/A   Clear
6:36 AM 57.2 °F 57.2 °F 100% 29.97 in 10.0 mi NW 4.6 mph - N/A   Clear
6:56 AM 57.2 °F 57.2 °F 100% 29.98 in 10.0 mi NW 4.6 mph - N/A   Clear
7:16 AM 57.2 °F 57.2 °F 100% 29.98 in 10.0 mi NW 5.8 mph - N/A   Clear
7:36 AM 57.2 °F 57.2 °F 100% 29.97 in 10.0 mi NW 4.6 mph - N/A   Clear
7:56 AM 57.2 °F 57.2 °F 100% 29.97 in 10.0 mi NW 5.8 mph - N/A   Clear
8:16 AM 59.0 °F 59.0 °F 100% 29.98 in 10.0 mi Calm Calm - N/A   Clear
8:36 AM 60.8 °F 59.0 °F 94% 29.98 in 10.0 mi NW 5.8 mph - N/A   Clear
8:56 AM 62.6 °F 59.0 °F 88% 29.98 in 10.0 mi NW 5.8 mph - N/A   Clear
9:16 AM 64.4 °F 60.8 °F 88% 29.98 in 10.0 mi NW 5.8 mph - N/A   Clear
9:36 AM 66.2 °F 60.8 °F 83% 29.99 in 10.0 mi NNW 3.5 mph - N/A   Clear
9:56 AM 66.2 °F 59.0 °F 78% 29.98 in 10.0 mi North 3.5 mph - N/A   Clear
10:16 AM 68.0 °F 60.8 °F 78% 29.98 in 10.0 mi NNW 3.5 mph - N/A   Clear
10:36 AM 68.0 °F 57.2 °F 68% 29.98 in 10.0 mi NNE 6.9 mph - N/A   Clear
10:56 AM 69.8 °F 59.0 °F 68% 29.99 in 10.0 mi NNE 3.5 mph - N/A   Clear
11:16 AM 69.8 °F 57.2 °F 64% 29.99 in 10.0 mi Calm Calm - N/A   Clear
11:36 AM 71.6 °F 57.2 °F 60% 29.98 in 10.0 mi NNE 4.6 mph - N/A   Clear
11:56 AM 71.6 °F 57.2 °F 60% 29.98 in 10.0 mi ENE 3.5 mph - N/A   Clear
12:16 PM 71.6 °F 55.4 °F 57% 29.97 in 10.0 mi WNW 4.6 mph - N/A   Clear
12:36 PM 73.4 °F 57.2 °F 57% 29.98 in 10.0 mi North 3.5 mph - N/A   Clear
12:56 PM 73.4 °F 55.4 °F 53% 29.97 in 10.0 mi West 4.6 mph - N/A   Clear
1:16 PM 73.4 °F 55.4 °F 53% 29.97 in 10.0 mi Calm Calm - N/A   Clear
1:36 PM 73.4 °F 55.4 °F 53% 29.97 in 10.0 mi WSW 4.6 mph - N/A   Clear
1:56 PM 75.2 °F 53.6 °F 47% 29.97 in 10.0 mi WNW 4.6 mph - N/A   Clear
2:16 PM 75.2 °F 55.4 °F 50% 29.97 in 10.0 mi WSW 4.6 mph - N/A   Clear
2:36 PM 75.2 °F 55.4 °F 50% 29.97 in 10.0 mi WNW 5.8 mph - N/A   Clear
2:56 PM 75.2 °F 55.4 °F 50% 29.97 in 10.0 mi Calm Calm - N/A   Clear
3:16 PM 77.0 °F 57.2 °F 50% 29.96 in 10.0 mi SW 4.6 mph - N/A   Clear
3:36 PM 77.0 °F 59.0 °F 54% 29.96 in 10.0 mi WNW 3.5 mph - N/A   Scattered Clouds
3:56 PM 77.0 °F 59.0 °F 54% 29.95 in 10.0 mi West 3.5 mph - N/A   Scattered Clouds
4:16 PM 77.0 °F 59.0 °F 54% 29.95 in 10.0 mi West 5.8 mph - N/A   Scattered Clouds
4:36 PM 77.0 °F 59.0 °F 54% 29.94 in 10.0 mi WSW 5.8 mph - N/A   Scattered Clouds
4:56 PM 77.0 °F 59.0 °F 54% 29.94 in 10.0 mi West 5.8 mph - N/A   Clear
5:16 PM 77.0 °F 59.0 °F 54% 29.94 in 10.0 mi WSW 3.5 mph - N/A   Clear
5:36 PM 77.0 °F 60.8 °F 57% 29.95 in 10.0 mi West 6.9 mph - N/A   Clear
5:56 PM 77.0 °F 59.0 °F 54% 29.95 in 10.0 mi WSW 3.5 mph - N/A   Clear
6:16 PM 75.2 °F 59.0 °F 57% 29.95 in 10.0 mi WSW 3.5 mph - N/A   Scattered Clouds
6:36 PM 75.2 °F 60.8 °F 61% 29.94 in 10.0 mi Calm Calm - N/A   Mostly Cloudy
6:56 PM 75.2 °F 60.8 °F 61% 29.94 in 10.0 mi Calm Calm - N/A   Scattered Clouds
7:16 PM 73.4 °F 62.6 °F 69% 29.94 in 10.0 mi Calm Calm - N/A   Clear
7:36 PM 73.4 °F 64.4 °F 73% 29.94 in 10.0 mi Calm Calm - N/A   Clear
7:56 PM 71.6 °F 64.4 °F 78% 29.94 in 10.0 mi SSW 3.5 mph - N/A   Clear
8:16 PM 69.8 °F 62.6 °F 78% 29.95 in 10.0 mi Calm Calm - N/A   Clear
8:36 PM 68.0 °F 62.6 °F 83% 29.96 in 10.0 mi Calm Calm - N/A   Clear
8:56 PM 68.0 °F 60.8 °F 78% 29.96 in 10.0 mi Calm Calm - N/A   Scattered Clouds
9:16 PM 66.2 °F 60.8 °F 83% 29.97 in 10.0 mi Calm Calm - N/A   Scattered Clouds
9:36 PM 66.2 °F 60.8 °F 83% 29.97 in 10.0 mi Calm Calm - N/A   Scattered Clouds
9:56 PM 64.4 °F 60.8 °F 88% 29.98 in 10.0 mi Calm Calm - N/A   Scattered Clouds
10:16 PM 64.4 °F 60.8 °F 88% 29.98 in 10.0 mi Calm Calm - N/A   Scattered Clouds
10:36 PM 62.6 °F 60.8 °F 94% 29.98 in 10.0 mi Calm Calm - N/A   Scattered Clouds
10:56 PM 60.8 °F 60.8 °F 100% 29.99 in 10.0 mi Calm Calm - N/A   Clear
11:16 PM 62.6 °F 60.8 °F 94% 29.99 in 10.0 mi Calm Calm - N/A   Clear
11:36 PM 60.8 °F 60.8 °F 100% 29.99 in 10.0 mi Calm Calm - N/A   Clear
11:56 PM 60.8 °F 60.8 °F 100% 30.00 in 10.0 mi Calm Calm - N/A   Clear